Location: Julian California
(33.0790°N, 116.6010°W)
Time: 01:53:34
(UTC-07:00)

Cosmos 1238 Rocket - Pass Details

Date: 19 May 2017
Orbit: 375 x 1051 km, 82.9° (Epoch: 28 June)

Event Time Altitude Azimuth Distance (km) Brightness Sun altitude
Exits shadow 21:38:54 38° 141° (SE) 1,517 4.5 -21.1°
Maximum altitude 21:41:05 52° 90° (E) 1,264 4.3 -21.4°
Drops below altitude 10° 21:47:35 10° 17° (NNE) 2,867 6.8 -22.4°
Sets 21:50:14 0° 13° (NNE) 3,804 7.5 -22.8°
